DW5310 Weather Reports


time (UTC)temp
F
wind
direction
speed
knots
gust
knots
rain 1hr
in
rain 24hr
in
rain mn
in
humidity
%
barometer
mb
20260506223504 64 282 0.0 0.0 0.00 0.00 0.00 74 1018.5
20260506223004 64 243 0.0 0.0 0.00 0.00 0.00 74 1018.5
20260506222504 64 305 0.0 0.0 0.00 0.00 0.00 75 1018.5
20260506221504 64 35 0.0 0.0 0.00 0.00 0.00 75 1018.5
20260506220504 64 35 0.0 0.0 0.00 0.00 0.00 75 1018.5
20260506220004 64 62 0.0 0.0 0.00 0.00 0.00 75 1018.5
20260506215504 64 91 0.0 0.0 0.00 0.00 0.00 75 1018.5
20260506215004 64 257 0.0 0.0 0.00 0.00 0.00 77 1018.5
20260506214504 64 133 0.0 4.3 0.00 0.00 0.00 77 1018.5
20260506214004 64 219 0.0 4.3 0.00 0.00 0.00 77 1018.5
20260506213504 63 305 0.0 0.0 0.00 0.00 0.00 77 1018.5
20260506213004 64 7 0.0 0.0 0.00 0.00 0.00 77 1018.5
20260506212504 64 198 0.0 0.0 0.00 0.00 0.00 78 1018.5
20260506211504 63 129 0.9 4.3 0.00 0.00 0.00 77 1018.5
20260506211004 63 135 0.0 1.7 0.00 0.00 0.00 78 1018.5
20260506210004 62 80 0.0 0.0 0.00 0.00 0.00 79 1018.5
20260506205004 62 293 0.0 5.2 0.00 0.00 0.00 79 1018.5
20260506204003 62 184 0.0 1.7 0.00 0.00 0.00 80 1018.5
20260506203504 61 282 0.0 0.0 0.00 0.00 0.00 80 1018.5
20260506203003 61 170 0.0 0.0 0.00 0.00 0.00 80 1018.5
20260506202504 61 58 0.0 0.0 0.00 0.00 0.00 81 1018.5
20260506202004 61 144 0.0 0.0 0.00 0.00 0.00 81 1018.5
20260506201505 61 260 0.0 0.0 0.00 0.00 0.00 81 1019.5
20260506200005 60 215 0.0 0.0 0.00 0.00 0.00 81 1019.5
20260506194504 61 140 0.0 4.3 0.00 0.00 0.00 82 1019.5
20260506194004 61 128 0.0 0.0 0.00 0.00 0.00 82 1019.5
20260506193504 61 143 0.0 0.0 0.00 0.00 0.00 82 1019.5
20260506193007 61 219 0.0 0.0 0.00 0.00 0.00 82 1018.5
20260506192506 61 256 0.0 6.1 0.00 0.00 0.00 82 1018.5
20260506192007 61 212 0.0 6.1 0.00 0.00 0.00 82 1018.5
20260506191507 61 171 1.7 5.2 0.00 0.00 0.00 83 1018.5
20260506191006 60 151 0.0 0.0 0.00 0.00 0.00 83 1018.5
20260506190507 60 244 0.0 0.0 0.00 0.00 0.00 84 1018.5
20260506190007 59 218 0.0 0.0 0.00 0.00 0.00 84 1019.5
20260506185507 60 115 0.0 0.0 0.00 0.00 0.00 84 1019.5
20260506185006 60 192 0.0 0.0 0.00 0.00 0.00 86 1019.5
20260506183507 58 196 0.0 2.6 0.00 0.00 0.00 86 1018.5
20260506182506 58 139 0.0 0.0 0.00 0.00 0.00 87 1019.5
20260506182007 58 282 0.0 0.0 0.00 0.00 0.00 87 1019.5
20260506181507 58 282 0.0 0.0 0.00 0.00 0.00 87 1019.5
20260506181007 58 282 0.0 0.0 0.00 0.00 0.00 87 1019.5
20260506180506 57 258 0.0 0.0 0.00 0.00 0.00 87 1019.5
20260506180006 57 260 0.0 0.0 0.00 0.00 0.00 87 1018.5
20260506175506 57 260 0.0 0.0 0.00 0.00 0.00 87 1018.5
20260506175007 57 260 0.0 0.0 0.00 0.00 0.00 86 1018.5
20260506174506 57 266 0.0 0.0 0.00 0.00 0.00 87 1018.5
20260506174007 57 110 0.0 0.0 0.00 0.00 0.00 87 1018.5
20260506173507 57 134 0.0 0.0 0.00 0.00 0.00 87 1018.5
20260506172506 57 148 0.0 0.0 0.00 0.00 0.00 87 1018.5
20260506172007 57 148 0.0 0.0 0.00 0.00 0.00 87 1018.5
20260506171006 56 58 0.0 0.0 0.00 0.00 0.00 87 1018.5
20260506170506 57 256 0.0 0.0 0.00 0.00 0.00 87 1018.5
20260506170006 57 51 0.0 0.0 0.00 0.00 0.00 87 1018.5
20260506165506 57 35 0.0 0.0 0.00 0.00 0.00 87 1018.5
20260506164507 57 125 0.0 0.0 0.00 0.00 0.00 87 1018.5
20260506164006 57 192 0.0 0.0 0.00 0.00 0.00 87 1018.5
20260506163506 57 192 0.0 0.0 0.00 0.00 0.00 88 1018.5
20260506163006 56 205 0.0 0.0 0.00 0.00 0.00 88 1018.5
20260506162506 56 125 0.0 0.0 0.00 0.00 0.00 88 1018.5
20260506162006 56 148 0.0 0.0 0.00 0.00 0.00 88 1018.5
20260506161006 56 305 0.0 0.0 0.00 0.00 0.00 88 1018.5
20260506160506 56 305 0.0 0.0 0.00 0.00 0.00 88 1018.5
20260506160006 56 56 0.0 0.0 0.00 0.00 0.00 88 1018.5
20260506155506 56 50 0.0 2.6 0.00 0.00 0.00 89 1018.5
20260506155006 55 85 0.0 2.6 0.00 0.00 0.00 89 1018.5
20260506154506 55 125 0.0 0.0 0.00 0.00 0.00 89 1018.5
20260506154005 55 138 0.0 0.0 0.00 0.00 0.00 89 1018.5
20260506153506 55 35 0.0 0.0 0.00 0.00 0.00 89 1018.5
20260506153007 55 89 0.0 0.0 0.00 0.00 0.00 89 1018.5
20260506152506 55 64 0.0 0.0 0.00 0.00 0.00 89 1018.5
20260506152006 55 125 0.0 0.0 0.00 0.00 0.00 89 1018.5
20260506151506 55 35 0.0 0.0 0.00 0.00 0.00 89 1018.5
20260506151006 55 35 0.0 0.0 0.00 0.00 0.00 88 1018.5
20260506150506 55 35 0.0 0.0 0.00 0.00 0.00 89 1018.5
20260506145509 55 287 0.0 0.0 0.00 0.00 0.00 89 1018.5
20260506145007 55 305 0.0 0.0 0.00 0.00 0.00 89 1018.5
20260506144506 55 305 0.0 0.0 0.00 0.00 0.00 89 1018.5
20260506144005 55 305 0.0 0.0 0.00 0.00 0.00 89 1018.5
20260506143506 55 305 0.0 0.0 0.00 0.00 0.00 89 1018.5
20260506143006 55 35 0.0 0.0 0.00 0.00 0.00 89 1018.5
20260506142506 55 35 0.0 0.0 0.00 0.00 0.00 89 1018.5
20260506142006 55 58 0.0 0.0 0.00 0.00 0.00 89 1018.5
20260506141506 55 58 0.0 0.0 0.00 0.00 0.00 89 1018.5
20260506141006 55 58 0.0 0.0 0.00 0.00 0.00 89 1018.5
20260506140006 55 58 0.0 0.0 0.00 0.00 0.00 89 1018.5
20260506135506 55 96 0.0 0.0 0.00 0.00 0.00 89 1018.5
20260506135007 55 80 0.0 0.0 0.00 0.00 0.00 89 1018.5
20260506134506 55 80 0.0 0.0 0.00 0.00 0.00 89 1018.5
20260506133505 55 80 0.0 0.0 0.00 0.00 0.00 89 1018.5
20260506132506 55 148 0.0 0.0 0.00 0.00 0.00 89 1017.5
20260506132005 55 148 0.0 0.0 0.00 0.00 0.00 89 1017.5
20260506131506 54 148 0.0 0.0 0.00 0.00 0.00 89 1017.5
20260506131007 54 80 0.0 0.0 0.00 0.00 0.00 88 1017.5
20260506130506 54 80 0.0 0.0 0.00 0.00 0.00 88 1017.5
20260506125506 54 102 0.0 0.0 0.00 0.00 0.00 88 1017.5
20260506125006 54 102 0.0 0.0 0.00 0.00 0.00 88 1017.5
20260506123005 55 141 0.0 0.0 0.00 0.00 0.00 88 1017.5
20260506122506 55 98 0.0 0.0 0.00 0.00 0.00 88 1017.5
20260506121506 55 80 0.0 0.0 0.00 0.00 0.00 87 1017.5
20260506121006 55 58 0.0 0.0 0.00 0.00 0.00 87 1017.5
20260506120506 55 102 0.0 0.0 0.00 0.00 0.00 87 1017.5
20260506115506 55 48 0.0 0.0 0.00 0.00 0.00 87 1017.5
20260506115005 55 35 0.0 0.0 0.00 0.00 0.00 87 1017.5
20260506114506 55 102 0.0 0.0 0.00 0.00 0.00 87 1017.5
20260506114005 55 125 0.0 0.0 0.00 0.00 0.00 87 1017.5
20260506113006 55 92 0.0 0.0 0.00 0.00 0.00 87 1017.5
20260506112505 55 47 0.0 0.0 0.00 0.00 0.00 87 1017.5
20260506112006 55 74 0.0 0.0 0.00 0.00 0.00 87 1017.5
20260506111506 55 305 0.0 0.0 0.00 0.00 0.00 87 1016.5
20260506111006 55 133 0.0 0.0 0.00 0.00 0.00 86 1016.5
20260506110506 55 80 0.0 0.0 0.00 0.00 0.00 86 1016.5
20260506110005 55 58 0.0 0.0 0.00 0.00 0.00 86 1016.5
20260506105006 56 80 0.0 0.0 0.00 0.00 0.00 87 1016.5
20260506104505 56 170 0.0 0.0 0.00 0.00 0.00 86 1016.5
20260506104006 56 170 0.0 0.0 0.00 0.00 0.00 87 1016.5
20260506103505 56 163 0.0 0.0 0.00 0.00 0.00 87 1016.5
20260506103005 56 125 0.0 0.0 0.00 0.00 0.00 87 1016.5
20260506102005 56 125 0.0 0.0 0.00 0.00 0.00 87 1016.5
20260506101506 56 125 0.0 0.0 0.00 0.00 0.00 86 1015.5
20260506101005 56 125 0.0 0.0 0.00 0.00 0.00 86 1015.5
20260506100006 56 125 0.0 0.0 0.00 0.00 0.00 86 1016.5
20260506095506 56 125 0.0 0.0 0.00 0.00 0.00 86 1016.5
20260506095005 56 125 0.0 0.0 0.00 0.00 0.00 86 1016.5
20260506094506 56 125 0.0 0.0 0.00 0.00 0.00 86 1016.5
20260506094005 56 125 0.0 0.0 0.00 0.00 0.00 86 1016.5
20260506093505 56 125 0.0 0.0 0.00 0.00 0.00 86 1016.5
20260506093005 57 58 0.0 0.0 0.00 0.00 0.00 85 1016.5
20260506092505 57 58 0.0 0.0 0.00 0.00 0.00 85 1016.5
20260506092005 57 58 0.0 0.0 0.00 0.00 0.00 85 1016.5
20260506091506 57 125 0.0 0.0 0.00 0.00 0.00 85 1015.5
20260506091006 57 125 0.0 0.0 0.00 0.00 0.00 85 1015.5
20260506090505 57 125 0.0 0.0 0.00 0.00 0.00 85 1015.5
20260506090005 57 125 0.0 0.0 0.00 0.00 0.00 85 1015.5
20260506085506 57 111 0.0 0.0 0.00 0.00 0.00 85 1015.5
20260506085005 57 58 0.0 0.0 0.00 0.00 0.00 84 1015.5
20260506083505 57 260 0.0 0.0 0.00 0.00 0.00 84 1015.5
20260506083005 58 260 0.0 0.0 0.00 0.00 0.00 84 1016.5
20260506082005 58 260 0.0 0.0 0.00 0.00 0.00 83 1016.5
20260506081005 58 260 0.0 0.0 0.00 0.00 0.00 83 1016.5
20260506080505 58 260 0.0 0.0 0.00 0.00 0.00 83 1016.5
20260506073505 58 260 0.0 0.0 0.00 0.00 0.00 83 1016.5
20260506072505 58 260 0.0 0.0 0.00 0.00 0.00 83 1016.5
20260506072005 58 260 0.0 0.0 0.00 0.00 0.00 83 1016.5
20260506071505 58 260 0.0 0.0 0.00 0.00 0.00 83 1016.5
20260506071005 58 260 0.0 0.0 0.00 0.00 0.00 83 1016.5
20260506070506 58 260 0.0 0.0 0.00 0.00 0.00 83 1016.5
20260506062505 58 260 0.0 0.0 0.00 0.00 0.00 82 1016.5
20260506062005 58 260 0.0 0.0 0.00 0.00 0.00 82 1016.5
20260506061505 58 260 0.0 0.0 0.00 0.00 0.00 82 1016.5
20260506061005 58 260 0.0 0.0 0.00 0.00 0.00 82 1016.5
20260506060505 58 260 0.0 0.0 0.00 0.00 0.00 83 1016.5
20260506051004 56 260 0.0 0.0 0.00 0.00 0.00 82 1015.5
20260506050505 57 260 0.0 0.0 0.00 0.00 0.00 82 1015.5
20260506045005 57 260 0.0 0.0 0.00 0.00 0.00 81 1015.5
20260506044505 57 260 0.0 0.0 0.00 0.00 0.00 81 1015.5
20260506044006 57 260 0.0 0.0 0.00 0.00 0.00 81 1015.5
20260506043505 57 263 0.0 0.0 0.00 0.00 0.00 80 1015.5
20260506043005 58 282 0.0 0.0 0.00 0.00 0.00 80 1014.5
20260506042505 58 282 0.0 0.0 0.00 0.00 0.00 80 1014.5
20260506042005 58 282 0.0 0.0 0.00 0.00 0.00 80 1014.5
20260506041505 58 260 0.0 0.0 0.00 0.00 0.00 79 1014.5
20260506041004 58 260 0.0 0.0 0.00 0.00 0.00 79 1014.5
20260506040505 58 260 0.0 0.0 0.00 0.00 0.00 79 1014.5
20260506040005 58 260 0.0 0.0 0.00 0.00 0.00 79 1014.5
20260506035505 58 260 0.0 0.0 0.00 0.00 0.00 79 1014.5
20260506035006 59 260 0.0 0.0 0.00 0.00 0.00 79 1014.5
20260506034505 59 260 0.0 0.0 0.00 0.00 0.00 79 1014.5
20260506033505 59 282 0.0 0.0 0.00 0.00 0.00 78 1014.5
20260506033005 59 282 0.0 0.0 0.00 0.00 0.00 78 1013.5
20260506032504 60 272 0.0 0.0 0.00 0.00 0.00 78 1013.5
20260506032004 60 238 0.0 0.0 0.00 0.00 0.00 78 1013.5
20260506031504 60 238 0.0 0.0 0.00 0.00 0.00 78 1014.5
20260506031004 60 238 0.0 0.0 0.00 0.00 0.00 77 1014.5
20260506030505 60 238 0.0 0.0 0.00 0.00 0.00 77 1014.5
20260506030006 60 238 0.0 0.0 0.00 0.00 0.00 77 1014.5
20260506025506 60 238 0.0 0.0 0.00 0.00 0.00 76 1014.5
20260506025004 60 238 0.0 0.0 0.00 0.00 0.00 76 1014.5
20260506024504 61 238 0.0 0.0 0.00 0.00 0.00 76 1014.5
20260506024005 61 238 0.0 0.0 0.00 0.00 0.00 76 1014.5
20260506023505 61 238 0.0 0.0 0.00 0.00 0.00 75 1014.5
20260506022505 61 238 0.0 0.0 0.00 0.00 0.00 75 1014.5
20260506022004 61 238 0.0 0.0 0.00 0.00 0.00 75 1014.5
20260506021504 61 238 0.0 0.0 0.00 0.00 0.00 75 1013.5
20260506021004 61 81 0.0 0.0 0.00 0.00 0.00 75 1013.5
20260506020004 61 58 0.0 0.0 0.00 0.00 0.00 75 1014.5
20260506015504 61 58 0.0 0.0 0.00 0.00 0.00 75 1014.5
20260506015004 61 58 0.0 0.0 0.00 0.00 0.00 75 1014.5
20260506014504 61 58 0.0 0.0 0.00 0.00 0.00 75 1014.5
20260506014004 61 35 0.0 0.0 0.00 0.00 0.00 76 1014.5
20260506013004 61 35 0.0 0.0 0.00 0.00 0.00 75 1014.5
20260506011504 61 51 0.0 0.0 0.00 0.00 0.00 75 1014.5
20260506011005 61 35 0.0 0.0 0.00 0.00 0.00 75 1014.5
20260506010504 61 49 0.0 0.0 0.00 0.00 0.00 76 1014.5
20260506005504 61 35 0.0 5.2 0.00 0.00 0.00 75 1013.5
20260506005004 61 35 0.0 5.2 0.00 0.00 0.00 75 1013.5
20260506004005 61 35 0.0 0.0 0.00 0.00 0.00 75 1014.5
20260506003005 61 305 0.0 0.0 0.00 0.00 0.00 75 1014.5
20260506002505 61 35 0.0 0.0 0.00 0.00 0.00 75 1014.5
20260506001004 62 192 0.0 0.0 0.00 0.00 0.00 74 1014.5
20260506000504 62 238 0.0 0.0 0.00 0.00 0.00 74 1014.5
20260506000005 62 238 0.0 0.0 0.00 0.00 0.00 74 1013.5
20260505235505 62 260 0.0 0.0 0.00 0.00 0.00 73 1013.5
20260505235005 62 282 0.0 0.0 0.00 0.00 0.00 74 1013.5
20260505234504 62 282 0.0 0.0 0.00 0.00 0.00 74 1014.5
20260505233505 62 215 0.0 0.0 0.00 0.00 0.00 74 1014.5
20260505233004 62 265 0.0 0.0 0.00 0.00 0.00 74 1014.5
20260505232504 62 282 0.0 0.0 0.00 0.00 0.00 73 1014.5
20260505232005 62 226 0.0 0.0 0.00 0.00 0.00 74 1014.5
20260505231504 62 305 0.0 0.0 0.00 0.00 0.00 74 1014.5
20260505231005 62 260 0.0 0.0 0.00 0.00 0.00 74 1014.5
20260505230504 62 260 0.0 0.0 0.00 0.00 0.00 74 1014.5
20260505230005 62 305 0.0 0.0 0.00 0.00 0.00 74 1014.5
20260505225504 61 35 0.0 0.0 0.00 0.00 0.00 74 1014.5
20260505225004 61 238 0.0 0.0 0.00 0.00 0.00 74 1014.5
20260505224504 61 83 0.0 0.0 0.00 0.00 0.00 74 1014.5